Home   Weather   Kings County   Past weeks

Flag for Canada Past Weather in Kings County, Nova Scotia, Canada — Yesterday and Last 2 Weeks

Now
57 °F

Cool.


Feels Like: 55 °F
Forecast: N/A
Wind: 8 mph from Northeast

Location: Kentville

Current Time: Sep 28, 2016 at 7:23:24 PM

Latest Report: Sep 28, 2016 at 6:00 PM


Visibility: N/A

Pressure: 30.36 "Hg

Humidity: 67%

Dew Point: 46 °F

Location of Kings CountyLocation

Past Weather in Kings County — Graph

°F

Kings County Temperature Yesterday

Maximum temperature yesterday: 55 °F (at 4:00 PM)
Minimum temperature yesterday: 44 °F (at 8:00 AM)
Average temperature yesterday: 50 °F

High & Low Weather Summary for the Past Weeks

 TemperatureHumidityPressure
High79 °F (Sep 14, 4:00 PM)100% (Sep 20, 4:00 AM)30.36 "Hg (Sep 20, 4:00 AM)
Low40 °F (Sep 16, 7:00 AM)35% (Sep 17, 5:00 PM)29.83 "Hg (Sep 14, 6:00 PM)
Average58 °F76%30.07 "Hg
* Reported Sep 13 6:00 PM — Sep 28 6:00 PM, Kings County, Weather by CustomWeather, © 2016

Note: Actual official high and low records may vary slightly from our data, if they occured in-between our weather recording intervals... More about our weather records

Advertising

Kings County Weather History for the Previous 24 Hours

Scroll right to see more
 ConditionsComfort  
Time TempWeatherWind HumidityBarometerVisibility
6:00 PM
Wed, Sep 28
57 °FCool.8 mph67%30.36 "HgN/A
5:00 PM57 °FCool.10 mph67%30.36 "HgN/A
4:00 PM58 °FCool.8 mph64%30.35 "HgN/A
3:00 PM58 °FCool.7 mph72%30.34 "HgN/A
1:00 PM56 °FCool.6 mph80%30.33 "HgN/A
12:00 PM55 °FCool.6 mph83%30.32 "HgN/A
11:00 AM53 °FCool.5 mph89%30.31 "HgN/A
10:00 AM52 °FCool.3 mph92%30.30 "HgN/A
9:00 AM51 °FCool.3 mph95%30.28 "HgN/A
8:00 AM51 °FCool.5 mph96%30.25 "HgN/A
7:00 AM50 °FCool.7 mph95%30.22 "HgN/A
6:00 AM51 °FCool.6 mph95%30.20 "HgN/A
5:00 AM51 °FCool.2 mph94%30.17 "HgN/A
4:00 AM51 °FCool.3 mph96%30.15 "HgN/A
3:00 AM51 °FCool.6 mph96%30.14 "HgN/A
2:00 AM51 °FCool.3 mph96%30.14 "HgN/A
1:00 AM51 °FCool.6 mph94%30.12 "HgN/A
12:00 AM51 °FCool.5 mph93%30.09 "HgN/A
11:00 PM
Tue, Sep 27
51 °FCool.8 mph94%30.06 "HgN/A
10:00 PM51 °FCool.7 mph96%30.03 "HgN/A
9:00 PM52 °FCool.6 mph96%30.03 "HgN/A
8:00 PM53 °FCool.8 mph96%30.00 "HgN/A
7:00 PM54 °FCool.6 mph97%29.98 "HgN/A
Weather by CustomWeather, © 2016

See weather overviewHow to use our weather pages